Location: Marsån
(66.4167°N, 22.2833°E)
Time: 10:12:13
(UTC+00:00)

Cosmos 2227 Rocket - Pass Details

Date: 24 February 2024
Orbit: 837 x 846 km, 71.0° (Epoch: 15 April)

Event Time Altitude Azimuth Distance (km) Brightness Sun altitude
Exits shadow 23:20:19 38° 64° (ENE) 1,266 3.3 -32.6°
Drops below altitude 10° 23:23:48 10° 52° (NE) 2,475 5.2 -32.5°
Sets 23:26:16 0° 50° (NE) 3,414 6.0 -32.5°
